Regional Weather Roundup
Issued by NWS Upton, NY

Current Version | Previous Version | Graphics & Text | Print | Product List | Glossary Off
Versions: 1 2 3 4 5 6 7 8 9 10 11 12 13 14 15 16 17 18 19 20 21 22 23 24 25 26 27 28 29 30 31 32 33 34 35 36 37 38 39 40 41 42 43 44 45 46 47 48 49 50

000
ASUS41 KOKX 020807
RWROKX

REGIONAL WEATHER ROUNDUP
NATIONAL WEATHER SERVICE NEW YORK NY
400 AM EDT THU APR 02 2015

NOTE: "FAIR" INDICATES FEW OR NO CLOUDS BELOW 12,000 FEET WITH NO
SIGNIFICANT WEATHER AND/OR OBSTRUCTIONS TO VISIBILITY.

NYZ071-072-176-178-NJZ106-104-020900-
NEW YORK CITY METRO AREA


CITY           SKY/WX    TMP DP  RH WIND       PRES   REMARKS
CENTRAL PARK   CLEAR     43  12  28 CALM      30.23F
LAGUARDIA APRT CLEAR     39  17  41 CALM      30.21F
KENNEDY INTL   PTCLDY    33  22  63 CALM      30.23F
NEWARK/LIBERTY CLEAR     38  21  50 CALM      30.22F
BRNX BOT. GARD   N/A    N/A N/A N/A CALM      30.23R
TETERBORO      CLEAR     34  21  59 NW3       30.21F
$$

NYZ177-179-078>081-020900-
LONG ISLAND NEW YORK

CITY           SKY/WX    TMP DP  RH WIND       PRES   REMARKS
FARMINGDALE    CLEAR     30  18  60 CALM      30.22F
ISLIP          CLEAR     29  18  63 CALM      30.21F
SHIRLEY        CLEAR     28  18  66 CALM      30.24S
WESTHAMPTON    PTCLDY    19  13  77 CALM      30.24F
MONTAUK POINT    N/A     34  20  56 CALM      30.23R
$$

NYZ052-065-067-020900-
HUDSON VALLEY

CITY           SKY/WX    TMP DP  RH WIND       PRES   REMARKS
WHITE PLAINS   CLEAR     32  17  54 NW3       30.19F
NEWBURGH       NOT AVBL
MONTGOMERY     CLEAR     26  20  77 S3        30.19F
POUGHKEEPSIE   CLEAR     24  17  74 CALM      30.20F
ALBANY         PTCLDY    29   9  43 CALM      30.19F
$$

NJZ001-105-106-008-010-013-015-019>022-104-020900-
NEW JERSEY

CITY           SKY/WX    TMP DP  RH WIND       PRES   REMARKS
NEWARK/LIBERTY CLEAR     38  21  50 CALM      30.22F
TETERBORO      CLEAR     34  21  59 NW3       30.21F
CALDWELL       CLEAR     29  20  69 CALM      30.22F
MORRISTOWN     CLEAR     28  25  86 CALM      30.22F
SOMERVILLE     CLEAR     27  22  81 CALM      30.22S
SUSSEX         CLEAR     24  19  81 CALM      30.21S
ANDOVER          N/A     25  21  85 CALM      30.21S
TRENTON        CLEAR     32  23  69 CALM      30.23R
MILLVILLE      CLEAR     30  27  88 SW3       30.26S
ATLANTIC CITY  CLEAR     37  31  78 SW6       30.26S WCI  32
WRIGHTSTOWN    CLEAR     35  26  71 SW5       30.21R WCI  30
TOMS RIVER     CLEAR     27  21  80 CALM      30.24S
BELMAR         CLEAR     36  25  64 S7        30.22F WCI  30
$$

PAZ047>061-062-071-020900-
EASTERN PENNSYLVANIA

CITY           SKY/WX    TMP DP  RH WIND       PRES   REMARKS
PHILADELPHIA   CLEAR     38  27  64 S3        30.26S
ALLENTOWN      CLEAR     27  23  85 CALM      30.23R
SCRANTON       PTCLDY    30  23  75 CALM      30.19R
$$

CTZ002-004>006-009-010-012-RIZ004-006-007-MAZ004-011-015-020900-
SOUTHERN NEW ENGLAND
 IN CT

CITY           SKY/WX    TMP DP  RH WIND       PRES   REMARKS
BRADLEY INTL   MOCLDY    28  12  51 CALM      30.20S
HARTFORD       PTCLDY    28  20  71 SW3       30.22S
DANBURY        CLEAR     25  17  72 CALM      30.21F
WTRBRY/OXFORD  CLEAR     32   7  34 CALM      30.20F
BRIDGEPORT     CLEAR     31  20  63 CALM      30.22F
MERIDEN        CLEAR     24  15  68 CALM      30.22S
NEW HAVEN      CLEAR     26  18  71 CALM      30.22S
CHESTER        FAIR      34   3  27 CALM      30.21R
GROTON         PTCLDY    27  19  72 NE3       30.21S
WILLIMANTIC    PTCLDY    24  18  77 CALM      30.21S

 IN RI

CITY           SKY/WX    TMP DP  RH WIND       PRES   REMARKS
PROVIDENCE     CLEAR     28  13  53 SW6       30.21R WCI  22
BLOCK ISLAND   PTCLDY    36  18  48 W7        30.21R WCI  30
WESTERLY       PTCLDY    27  19  72 CALM      30.22R

 IN MA

CITY           SKY/WX    TMP DP  RH WIND       PRES   REMARKS
BOSTON         PTCLDY    35  10  35 W8        30.20R WCI  29
WORCESTER      CLEAR     31   7  36 W13       30.14S WCI  21
WESTFIELD      FAIR      25  13  60 CALM      30.20S
PROVINCETOWN   PTCLDY    27  25  93 CALM      30.19S
NANTUCKET      PTCLDY    29  25  85 W6        30.20S WCI  23
$$

ANZ330-335-338-340-345-350-353-355-020900-
COASTAL MARINE OBSERVATIONS


STATION/POSITION TIME  SKY/WX   TEMP    WIND        PRES    VSBY  WAVE
                                AIR SEA DIR/SP/G                  HT/PER
                 (UTC)          (F)     (DEG/KT/KT) (MB)    (MI)  (FT/S)
NY HARB ENTRANCE 0750            40 39  190/  4/  6 1023.2          1/ 9
4S FIRE IS       0703               38                N/A           2/ 8
20S FIRE ISLAND  NOT AVBL
23SW MTP         0750                                 N/A           2/10
HUDSON CANYON    NOT AVBL
EXECUTION ROCKS  NOT AVBL
WESTERN LI SOUND NOT AVBL
CENTRAL LI SOUND NOT AVBL
EASTERN LI SOUND NOT AVBL
ROBBINS REEF     0700            42      CALM  /  1 1022.5
$$


>>>>>>>>>>>>>>>>>>>>>>>>>>>> KEY <<<<<<<<<<<<<<<<<<<<<<<<<<<
>                                                          <
>     SKY/WX - SKY CONDITION/PRESENT WEATHER               <
>     TMP    - TEMPERATURE IN FAHRENHEIT                   <
>     DP     - DEWPOINT IN FAHRENHEIT                      <
>     RH     - RELATIVE HUMIDITY IN PERCENT                <
>     WIND   - DIRECTION AND SPEED IN MPH                  <
>     PRES   - MEAN SEA LEVEL PRESSURE IN INCHES OF HG     <
>     WCI    - WIND CHILL INDEX                            <
>     VSB    - VISIBILITY IN MILES                         <
>     HX     - HEAT INDEX                                  <
>     TC     - TEMPERATURE IN CELSIUS                      <
>     VRB    - VARIABLE WIND DIRECTION                     <
>                                                          <
>>>>>>>>>>>>>>>>>>>>>>>>>>>> KEY <<<<<<<<<<<<<<<<<<<<<<<<<<<




USA.gov is the U.S. government's official web portal to all federal, state and local government web resources and services.